Time,TemperatureF,DewpointF,PressureIn,WindDirection,WindDirectionDegrees,WindSpeedMPH,WindSpeedGustMPH,Humidity,HourlyPrecipIn,Conditions,Clouds,dailyrainin,SoftwareType,DateUTC
2013-08-09 00:01:00,67.7,64.0,29.88,ENE,70,4.0,5.0,88,0.00,,,0.00,Wunderground v.1.15,2013-08-09 05:01:00,
2013-08-09 00:06:00,67.7,63.7,29.89,ENE,70,4.0,5.0,87,0.00,,,0.00,Wunderground v.1.15,2013-08-09 05:06:00,
2013-08-09 00:11:00,67.7,63.7,29.89,ENE,70,4.0,4.0,87,0.00,,,0.00,Wunderground v.1.15,2013-08-09 05:11:00,
2013-08-09 00:17:00,67.6,63.6,29.89,ENE,70,4.0,4.0,87,0.00,,,0.00,Wunderground v.1.15,2013-08-09 05:17:00,
2013-08-09 00:23:00,67.7,63.0,29.88,ENE,70,4.0,4.0,85,0.00,,,0.00,Wunderground v.1.15,2013-08-09 05:23:00,
2013-08-09 00:29:00,67.9,62.5,29.89,ENE,70,4.0,4.0,83,0.00,,,0.00,Wunderground v.1.15,2013-08-09 05:29:00,
2013-08-09 00:35:00,68.0,62.3,29.89,ENE,70,3.0,4.0,82,0.00,,,0.00,Wunderground v.1.15,2013-08-09 05:35:00,
2013-08-09 00:40:00,67.9,61.9,29.89,ENE,70,3.0,4.0,81,0.00,,,0.00,Wunderground v.1.15,2013-08-09 05:40:00,
2013-08-09 00:46:00,67.9,61.5,29.89,ENE,70,4.0,4.0,80,0.00,,,0.00,Wunderground v.1.15,2013-08-09 05:46:00,
2013-08-09 00:52:00,67.7,61.3,29.89,ENE,70,4.0,4.0,80,0.00,,,0.00,Wunderground v.1.15,2013-08-09 05:52:00,
2013-08-09 00:58:00,67.6,61.2,29.89,ENE,70,4.0,5.0,80,0.00,,,0.00,Wunderground v.1.15,2013-08-09 05:58:00,
2013-08-09 01:04:00,67.4,61.0,29.88,ENE,70,4.0,5.0,80,0.00,,,0.00,Wunderground v.1.15,2013-08-09 06:04:00,
2013-08-09 01:09:00,67.2,60.8,29.88,ENE,70,4.0,5.0,80,0.00,,,0.00,Wunderground v.1.15,2013-08-09 06:09:00,
2013-08-09 01:14:00,67.2,60.8,29.88,ENE,70,3.0,4.0,80,0.00,,,0.00,Wunderground v.1.15,2013-08-09 06:14:00,
2013-08-09 01:20:00,67.1,60.7,29.88,ENE,70,3.0,3.0,80,0.00,,,0.00,Wunderground v.1.15,2013-08-09 06:20:00,
2013-08-09 01:26:00,67.0,60.6,29.88,ENE,70,3.0,3.0,80,0.00,,,0.00,Wunderground v.1.15,2013-08-09 06:26:00,
2013-08-09 01:31:00,66.7,61.0,29.88,ENE,70,2.0,2.0,82,0.00,,,0.00,Wunderground v.1.15,2013-08-09 06:31:00,
2013-08-09 01:37:00,66.2,60.9,29.88,ENE,70,1.0,2.0,83,0.00,,,0.00,Wunderground v.1.15,2013-08-09 06:37:00,
2013-08-09 01:43:00,65.8,60.8,29.88,ENE,70,1.0,1.0,84,0.00,,,0.00,Wunderground v.1.15,2013-08-09 06:43:00,
2013-08-09 01:48:00,65.4,60.8,29.88,ENE,70,0.0,1.0,85,0.00,,,0.00,Wunderground v.1.15,2013-08-09 06:48:00,
2013-08-09 01:54:00,65.0,60.4,29.88,ENE,70,0.0,0.0,85,0.00,,,0.00,Wunderground v.1.15,2013-08-09 06:54:00,
2013-08-09 02:00:00,64.7,60.4,29.88,ENE,70,0.0,0.0,86,0.00,,,0.00,Wunderground v.1.15,2013-08-09 07:00:00,
2013-08-09 02:05:00,64.6,60.3,29.88,ENE,70,0.0,0.0,86,0.00,,,0.00,Wunderground v.1.15,2013-08-09 07:05:00,
2013-08-09 02:11:00,64.5,60.2,29.88,ENE,70,0.0,0.0,86,0.00,,,0.00,Wunderground v.1.15,2013-08-09 07:11:00,
2013-08-09 02:17:00,64.4,60.4,29.88,ENE,70,0.0,0.0,87,0.00,,,0.00,Wunderground v.1.15,2013-08-09 07:17:00,
2013-08-09 02:23:00,64.3,60.3,29.88,ENE,70,0.0,0.0,87,0.00,,,0.00,Wunderground v.1.15,2013-08-09 07:23:00,
2013-08-09 02:29:00,64.3,60.3,29.88,ENE,70,0.0,0.0,87,0.00,,,0.00,Wunderground v.1.15,2013-08-09 07:29:00,
2013-08-09 02:35:00,64.3,60.0,29.88,ENE,70,0.0,0.0,86,0.00,,,0.00,Wunderground v.1.15,2013-08-09 07:35:00,
2013-08-09 02:41:00,64.4,60.1,29.88,ENE,70,0.0,2.0,86,0.00,,,0.00,Wunderground v.1.15,2013-08-09 07:41:00,
2013-08-09 02:47:00,64.7,60.1,29.88,ENE,70,1.0,2.0,85,0.00,,,0.00,Wunderground v.1.15,2013-08-09 07:47:00,
2013-08-09 02:53:00,64.8,60.2,29.88,ENE,70,1.0,1.0,85,0.00,,,0.00,Wunderground v.1.15,2013-08-09 07:53:00,
2013-08-09 02:59:00,64.7,59.8,29.88,ENE,70,0.0,1.0,84,0.00,,,0.00,Wunderground v.1.15,2013-08-09 07:59:00,
2013-08-09 03:05:00,64.5,59.9,29.88,ENE,70,0.0,0.0,85,0.00,,,0.00,Wunderground v.1.15,2013-08-09 08:05:00,
2013-08-09 03:11:00,64.3,59.4,29.88,ENE,70,1.0,2.0,84,0.00,,,0.00,Wunderground v.1.15,2013-08-09 08:11:00,
2013-08-09 03:17:00,63.9,59.3,29.88,ENE,70,1.0,2.0,85,0.00,,,0.00,Wunderground v.1.15,2013-08-09 08:17:00,
2013-08-09 03:23:00,63.7,59.1,29.88,ENE,70,0.0,1.0,85,0.00,,,0.00,Wunderground v.1.15,2013-08-09 08:23:00,
2013-08-09 03:28:00,63.6,58.7,29.88,ENE,70,0.0,1.0,84,0.00,,,0.00,Wunderground v.1.15,2013-08-09 08:28:00,
2013-08-09 03:34:00,63.7,59.1,29.88,ENE,70,0.0,0.0,85,0.00,,,0.00,Wunderground v.1.15,2013-08-09 08:34:00,
2013-08-09 03:40:00,63.6,59.0,29.88,ENE,70,0.0,0.0,85,0.00,,,0.00,Wunderground v.1.15,2013-08-09 08:40:00,
2013-08-09 03:46:00,63.5,58.9,29.89,ENE,70,0.0,0.0,85,0.00,,,0.00,Wunderground v.1.15,2013-08-09 08:46:00,
2013-08-09 03:52:00,63.3,59.0,29.89,ENE,70,0.0,0.0,86,0.00,,,0.00,Wunderground v.1.15,2013-08-09 08:52:00,
2013-08-09 03:58:00,63.0,58.7,29.89,ENE,70,0.0,0.0,86,0.00,,,0.00,Wunderground v.1.15,2013-08-09 08:58:00,
2013-08-09 04:04:00,62.6,58.7,29.88,ENE,70,0.0,0.0,87,0.00,,,0.00,Wunderground v.1.15,2013-08-09 09:04:00,
2013-08-09 04:09:00,62.2,58.6,29.88,ENE,70,0.0,0.0,88,0.00,,,0.00,Wunderground v.1.15,2013-08-09 09:09:00,
2013-08-09 04:15:00,61.9,58.6,29.88,ENE,70,0.0,0.0,89,0.00,,,0.00,Wunderground v.1.15,2013-08-09 09:15:00,
2013-08-09 04:20:00,61.8,58.5,29.88,ENE,70,0.0,0.0,89,0.00,,,0.00,Wunderground v.1.15,2013-08-09 09:20:00,
2013-08-09 04:26:00,61.8,58.5,29.88,ENE,70,0.0,0.0,89,0.00,,,0.00,Wunderground v.1.15,2013-08-09 09:26:00,
2013-08-09 04:32:00,61.6,58.3,29.88,ENE,70,0.0,0.0,89,0.00,,,0.00,Wunderground v.1.15,2013-08-09 09:32:00,
2013-08-09 04:38:00,61.6,58.3,29.88,ENE,70,0.0,0.0,89,0.00,,,0.00,Wunderground v.1.15,2013-08-09 09:38:00,
2013-08-09 04:44:00,61.6,58.3,29.88,ENE,70,0.0,0.0,89,0.00,,,0.00,Wunderground v.1.15,2013-08-09 09:44:00,
2013-08-09 04:49:00,61.5,58.2,29.88,ENE,70,0.0,0.0,89,0.00,,,0.00,Wunderground v.1.15,2013-08-09 09:49:00,
2013-08-09 04:54:00,61.5,58.2,29.88,ENE,70,0.0,0.0,89,0.00,,,0.00,Wunderground v.1.15,2013-08-09 09:54:00,
2013-08-09 05:00:00,61.4,58.1,29.89,ENE,70,0.0,0.0,89,0.00,,,0.00,Wunderground v.1.15,2013-08-09 10:00:00,
2013-08-09 05:05:00,61.4,58.1,29.89,ENE,70,0.0,0.0,89,0.00,,,0.00,Wunderground v.1.15,2013-08-09 10:05:00,
2013-08-09 05:11:00,61.5,58.2,29.89,ENE,70,0.0,0.0,89,0.00,,,0.00,Wunderground v.1.15,2013-08-09 10:11:00,
2013-08-09 05:17:00,61.6,58.3,29.89,ENE,70,0.0,0.0,89,0.00,,,0.00,Wunderground v.1.15,2013-08-09 10:17:00,
2013-08-09 05:22:00,61.7,58.4,29.89,ENE,70,0.0,0.0,89,0.00,,,0.00,Wunderground v.1.15,2013-08-09 10:22:00,
2013-08-09 05:27:00,61.8,58.2,29.89,ENE,70,0.0,0.0,88,0.00,,,0.00,Wunderground v.1.15,2013-08-09 10:27:00,
2013-08-09 05:33:00,61.8,58.2,29.89,ENE,70,0.0,0.0,88,0.00,,,0.00,Wunderground v.1.15,2013-08-09 10:33:00,
2013-08-09 05:39:00,61.8,57.9,29.89,ENE,70,0.0,0.0,87,0.00,,,0.00,Wunderground v.1.15,2013-08-09 10:39:00,
2013-08-09 05:45:00,61.8,57.6,29.90,ENE,70,0.0,0.0,86,0.00,,,0.00,Wunderground v.1.15,2013-08-09 10:45:00,
2013-08-09 05:51:00,62.0,57.8,29.89,ENE,70,0.0,0.0,86,0.00,,,0.00,Wunderground v.1.15,2013-08-09 10:51:00,
2013-08-09 05:56:00,62.0,57.4,29.90,ENE,70,0.0,0.0,85,0.00,,,0.00,Wunderground v.1.15,2013-08-09 10:56:00,
2013-08-09 06:02:00,61.9,57.7,29.90,ENE,70,0.0,0.0,86,0.00,,,0.00,Wunderground v.1.15,2013-08-09 11:02:00,
2013-08-09 06:07:00,61.9,57.7,29.90,ENE,70,0.0,0.0,86,0.00,,,0.00,Wunderground v.1.15,2013-08-09 11:07:00,
2013-08-09 06:13:00,61.6,57.7,29.91,ENE,70,0.0,0.0,87,0.00,,,0.00,Wunderground v.1.15,2013-08-09 11:13:00,
2013-08-09 06:19:00,61.3,57.7,29.91,ENE,70,0.0,0.0,88,0.00,,,0.00,Wunderground v.1.15,2013-08-09 11:19:00,
2013-08-09 06:24:00,61.2,57.6,29.90,ENE,70,0.0,0.0,88,0.00,,,0.00,Wunderground v.1.15,2013-08-09 11:24:00,
2013-08-09 06:29:00,61.4,57.5,29.90,ENE,70,0.0,0.0,87,0.00,,,0.00,Wunderground v.1.15,2013-08-09 11:29:00,
2013-08-09 06:35:00,61.6,57.4,29.90,ENE,70,0.0,0.0,86,0.00,,,0.00,Wunderground v.1.15,2013-08-09 11:35:00,
2013-08-09 06:41:00,62.0,57.8,29.90,ENE,70,0.0,0.0,86,0.00,,,0.00,Wunderground v.1.15,2013-08-09 11:41:00,
2013-08-09 06:47:00,62.2,57.6,29.91,ENE,70,0.0,0.0,85,0.00,,,0.00,Wunderground v.1.15,2013-08-09 11:47:00,
2013-08-09 06:53:00,62.5,57.9,29.90,ENE,70,0.0,0.0,85,0.00,,,0.00,Wunderground v.1.15,2013-08-09 11:53:00,
2013-08-09 06:59:00,62.9,58.3,29.90,ENE,70,0.0,0.0,85,0.00,,,0.00,Wunderground v.1.15,2013-08-09 11:59:00,
2013-08-09 07:05:00,63.7,59.1,29.90,ENE,70,0.0,0.0,85,0.00,,,0.00,Wunderground v.1.15,2013-08-09 12:05:00,
2013-08-09 07:11:00,64.3,59.0,29.91,ENE,70,0.0,0.0,83,0.00,,,0.00,Wunderground v.1.15,2013-08-09 12:11:00,
2013-08-09 07:17:00,65.0,60.4,29.90,ENE,70,0.0,0.0,85,0.00,,,0.00,Wunderground v.1.15,2013-08-09 12:17:00,
2013-08-09 07:23:00,65.7,61.7,29.90,ENE,70,0.0,0.0,87,0.00,,,0.00,Wunderground v.1.15,2013-08-09 12:23:00,
2013-08-09 07:28:00,66.0,61.7,29.90,ENE,70,0.0,0.0,86,0.00,,,0.00,Wunderground v.1.15,2013-08-09 12:28:00,
2013-08-09 07:34:00,66.2,60.9,29.90,ENE,70,0.0,0.0,83,0.00,,,0.00,Wunderground v.1.15,2013-08-09 12:34:00,
2013-08-09 07:39:00,66.3,61.0,29.90,ENE,70,0.0,0.0,83,0.00,,,0.00,Wunderground v.1.15,2013-08-09 12:39:00,
2013-08-09 07:44:00,66.4,60.4,29.91,ENE,70,0.0,0.0,81,0.00,,,0.00,Wunderground v.1.15,2013-08-09 12:44:00,
2013-08-09 07:49:00,66.7,61.7,29.91,ENE,70,0.0,0.0,84,0.00,,,0.00,Wunderground v.1.15,2013-08-09 12:49:00,
2013-08-09 07:55:00,66.8,61.8,29.92,ENE,70,0.0,0.0,84,0.00,,,0.00,Wunderground v.1.15,2013-08-09 12:55:00,
2013-08-09 08:01:00,66.9,60.2,29.91,ENE,70,0.0,0.0,79,0.00,,,0.00,Wunderground v.1.15,2013-08-09 13:01:00,
2013-08-09 08:06:00,67.1,60.0,29.91,ENE,70,0.0,0.0,78,0.00,,,0.00,Wunderground v.1.15,2013-08-09 13:06:00,
2013-08-09 08:12:00,67.9,60.1,29.91,ENE,70,0.0,0.0,76,0.00,,,0.00,Wunderground v.1.15,2013-08-09 13:12:00,
2013-08-09 08:18:00,69.2,60.9,29.91,ENE,70,0.0,0.0,75,0.00,,,0.00,Wunderground v.1.15,2013-08-09 13:18:00,
2013-08-09 08:23:00,69.9,60.1,29.91,ENE,70,0.0,0.0,71,0.00,,,0.00,Wunderground v.1.15,2013-08-09 13:23:00,
2013-08-09 08:29:00,70.3,60.8,29.91,ENE,70,0.0,0.0,72,0.00,,,0.00,Wunderground v.1.15,2013-08-09 13:29:00,
2013-08-09 08:35:00,70.4,60.5,29.92,ENE,70,0.0,0.0,71,0.00,,,0.00,Wunderground v.1.15,2013-08-09 13:35:00,
2013-08-09 08:41:00,70.6,60.7,29.92,ENE,70,0.0,1.0,71,0.00,,,0.00,Wunderground v.1.15,2013-08-09 13:41:00,
2013-08-09 08:47:00,70.8,61.7,29.92,ENE,70,0.0,1.0,73,0.00,,,0.00,Wunderground v.1.15,2013-08-09 13:47:00,
2013-08-09 08:53:00,70.7,61.6,29.92,ENE,70,0.0,0.0,73,0.00,,,0.00,Wunderground v.1.15,2013-08-09 13:53:00,
2013-08-09 08:59:00,70.4,60.5,29.92,ENE,70,1.0,2.0,71,0.00,,,0.00,Wunderground v.1.15,2013-08-09 13:59:00,
2013-08-09 09:04:00,70.3,61.2,29.92,ENE,70,1.0,3.0,73,0.00,,,0.00,Wunderground v.1.15,2013-08-09 14:04:00,
2013-08-09 09:09:00,70.5,60.6,29.92,ENE,70,1.0,3.0,71,0.00,,,0.00,Wunderground v.1.15,2013-08-09 14:09:00,
2013-08-09 09:15:00,70.9,62.2,29.92,ENE,70,0.0,1.0,74,0.00,,,0.00,Wunderground v.1.15,2013-08-09 14:15:00,
2013-08-09 09:20:00,71.4,62.7,29.92,ENE,70,0.0,0.0,74,0.00,,,0.00,Wunderground v.1.15,2013-08-09 14:20:00,
2013-08-09 09:25:00,72.0,62.9,29.92,ENE,70,0.0,1.0,73,0.00,,,0.00,Wunderground v.1.15,2013-08-09 14:25:00,
2013-08-09 09:31:00,72.3,62.0,29.92,ENE,70,1.0,1.0,70,0.00,,,0.00,Wunderground v.1.15,2013-08-09 14:31:00,
2013-08-09 09:37:00,72.6,63.1,29.92,ENE,70,1.0,2.0,72,0.00,,,0.00,Wunderground v.1.15,2013-08-09 14:37:00,
2013-08-09 09:42:00,72.8,61.6,29.92,ENE,70,0.0,1.0,68,0.00,,,0.00,Wunderground v.1.15,2013-08-09 14:42:00,
2013-08-09 09:47:00,73.0,62.2,29.92,ENE,70,0.0,1.0,69,0.00,,,0.00,Wunderground v.1.15,2013-08-09 14:47:00,
2013-08-09 09:53:00,73.2,61.6,29.92,ENE,70,0.0,1.0,67,0.00,,,0.00,Wunderground v.1.15,2013-08-09 14:53:00,
2013-08-09 09:58:00,73.4,61.8,29.92,ENE,70,1.0,3.0,67,0.00,,,0.00,Wunderground v.1.15,2013-08-09 14:58:00,
2013-08-09 10:04:00,73.4,62.6,29.92,ENE,70,1.0,2.0,69,0.00,,,0.00,Wunderground v.1.15,2013-08-09 15:04:00,
2013-08-09 10:09:00,73.6,63.6,29.92,ENE,70,1.0,2.0,71,0.00,,,0.00,Wunderground v.1.15,2013-08-09 15:09:00,
2013-08-09 10:15:00,73.9,63.1,29.93,ENE,70,1.0,2.0,69,0.00,,,0.00,Wunderground v.1.15,2013-08-09 15:15:00,
2013-08-09 10:20:00,74.4,63.1,29.93,ENE,70,1.0,1.0,68,0.00,,,0.00,Wunderground v.1.15,2013-08-09 15:20:00,
2013-08-09 10:25:00,74.6,63.8,29.93,SSE,150,2.0,5.0,69,0.00,,,0.00,Wunderground v.1.15,2013-08-09 15:25:00,
2013-08-09 10:31:00,74.5,64.5,29.92,SSE,151,3.0,3.0,71,0.00,,,0.00,Wunderground v.1.15,2013-08-09 15:31:00,
2013-08-09 10:36:00,74.7,62.6,29.92,SSE,151,1.0,3.0,66,0.00,,,0.00,Wunderground v.1.15,2013-08-09 15:36:00,
2013-08-09 10:42:00,75.1,64.2,29.92,SSE,151,1.0,2.0,69,0.00,,,0.00,Wunderground v.1.15,2013-08-09 15:42:00,
2013-08-09 10:48:00,75.4,64.1,29.92,SSE,151,1.0,2.0,68,0.00,,,0.00,Wunderground v.1.15,2013-08-09 15:48:00,
2013-08-09 10:54:00,75.3,64.8,29.93,SSE,162,1.0,4.0,70,0.00,,,0.00,Wunderground v.1.15,2013-08-09 15:54:00,
2013-08-09 11:00:00,75.4,65.3,29.92,South,170,2.0,2.0,71,0.00,,,0.00,Wunderground v.1.15,2013-08-09 16:00:00,
2013-08-09 11:05:00,75.8,64.9,29.92,South,170,1.0,3.0,69,0.00,,,0.00,Wunderground v.1.15,2013-08-09 16:05:00,
2013-08-09 11:11:00,75.9,64.2,29.92,South,171,1.0,4.0,67,0.00,,,0.00,Wunderground v.1.15,2013-08-09 16:11:00,
2013-08-09 11:17:00,76.1,65.2,29.92,South,187,2.0,4.0,69,0.00,,,0.00,Wunderground v.1.15,2013-08-09 16:17:00,
2013-08-09 11:23:00,76.6,65.7,29.92,SSW,197,1.0,4.0,69,0.00,,,0.00,Wunderground v.1.15,2013-08-09 16:23:00,
2013-08-09 11:29:00,76.8,66.3,29.92,SSW,213,2.0,5.0,70,0.00,,,0.00,Wunderground v.1.15,2013-08-09 16:29:00,
2013-08-09 11:35:00,77.2,66.2,29.92,SW,225,2.0,5.0,69,0.00,,,0.00,Wunderground v.1.15,2013-08-09 16:35:00,
2013-08-09 11:41:00,76.9,65.5,29.92,SW,229,3.0,6.0,68,0.00,,,0.00,Wunderground v.1.15,2013-08-09 16:41:00,
2013-08-09 11:47:00,77.0,66.9,29.92,West,279,4.0,6.0,71,0.00,,,0.00,Wunderground v.1.15,2013-08-09 16:47:00,
2013-08-09 11:53:00,77.0,65.6,29.91,West,281,3.0,4.0,68,0.00,,,0.00,Wunderground v.1.15,2013-08-09 16:53:00,
2013-08-09 11:58:00,77.2,67.1,29.92,NW,315,3.0,5.0,71,0.00,,,0.00,Wunderground v.1.15,2013-08-09 16:58:00,
2013-08-09 12:04:00,77.1,65.3,29.91,NW,311,4.0,5.0,67,0.00,,,0.00,Wunderground v.1.15,2013-08-09 17:04:00,
2013-08-09 12:09:00,76.9,65.5,29.91,NW,311,3.0,5.0,68,0.00,,,0.00,Wunderground v.1.15,2013-08-09 17:09:00,
2013-08-09 12:15:00,77.0,66.5,29.91,WNW,301,2.0,4.0,70,0.00,,,0.00,Wunderground v.1.15,2013-08-09 17:15:00,
2013-08-09 12:20:00,77.5,66.5,29.92,WNW,301,1.0,3.0,69,0.00,,,0.00,Wunderground v.1.15,2013-08-09 17:20:00,
2013-08-09 12:26:00,77.9,66.9,29.92,WNW,301,2.0,4.0,69,0.00,,,0.00,Wunderground v.1.15,2013-08-09 17:26:00,
2013-08-09 12:32:00,77.7,66.3,29.91,West,275,2.0,2.0,68,0.00,,,0.00,Wunderground v.1.15,2013-08-09 17:32:00,
2013-08-09 12:38:00,77.8,66.8,29.91,West,275,1.0,3.0,69,0.00,,,0.00,Wunderground v.1.15,2013-08-09 17:38:00,
2013-08-09 12:44:00,77.8,66.8,29.91,West,266,2.0,6.0,69,0.00,,,0.00,Wunderground v.1.15,2013-08-09 17:44:00,
2013-08-09 12:50:00,77.6,66.2,29.91,WSW,242,4.0,5.0,68,0.00,,,0.00,Wunderground v.1.15,2013-08-09 17:50:00,
2013-08-09 12:56:00,77.6,67.0,29.92,WSW,242,4.0,5.0,70,0.00,,,0.00,Wunderground v.1.15,2013-08-09 17:56:00,
2013-08-09 12:59:00,77.8,67.2,29.92,WSW,242,4.0,5.0,70,0.00,,,0.00,Wunderground v.1.15,2013-08-09 17:59:00,
2013-08-09 13:05:00,78.2,67.2,29.91,WSW,242,3.0,5.0,69,0.00,,,0.00,Wunderground v.1.15,2013-08-09 18:05:00,
2013-08-09 13:11:00,78.3,66.9,29.91,WSW,242,2.0,4.0,68,0.00,,,0.00,Wunderground v.1.15,2013-08-09 18:11:00,
2013-08-09 13:16:00,78.2,67.6,29.91,WSW,240,4.0,7.0,70,0.00,,,0.00,Wunderground v.1.15,2013-08-09 18:16:00,
2013-08-09 13:22:00,78.4,67.0,29.91,WSW,239,3.0,5.0,68,0.00,,,0.00,Wunderground v.1.15,2013-08-09 18:22:00,
2013-08-09 13:27:00,78.5,66.2,29.91,WSW,245,3.0,5.0,66,0.00,,,0.00,Wunderground v.1.15,2013-08-09 18:27:00,
2013-08-09 13:33:00,78.1,65.4,29.91,WSW,245,4.0,5.0,65,0.00,,,0.00,Wunderground v.1.15,2013-08-09 18:33:00,
2013-08-09 13:38:00,78.3,65.6,29.91,WSW,245,3.0,5.0,65,0.00,,,0.00,Wunderground v.1.15,2013-08-09 18:38:00,
2013-08-09 13:43:00,78.6,66.3,29.91,WSW,245,1.0,2.0,66,0.00,,,0.00,Wunderground v.1.15,2013-08-09 18:43:00,
2013-08-09 13:49:00,79.1,67.2,29.91,WSW,245,0.0,5.0,67,0.00,,,0.00,Wunderground v.1.15,2013-08-09 18:49:00,
2013-08-09 13:54:00,78.9,68.7,29.91,WSW,245,2.0,5.0,71,0.00,,,0.00,Wunderground v.1.15,2013-08-09 18:54:00,
2013-08-09 14:00:00,78.5,67.1,29.91,WSW,245,4.0,5.0,68,0.00,,,0.00,Wunderground v.1.15,2013-08-09 19:00:00,
2013-08-09 14:05:00,78.0,67.0,29.91,WSW,245,4.0,5.0,69,0.00,,,0.00,Wunderground v.1.15,2013-08-09 19:05:00,
2013-08-09 14:11:00,78.2,68.0,29.91,WSW,245,3.0,6.0,71,0.00,,,0.00,Wunderground v.1.15,2013-08-09 19:11:00,
2013-08-09 14:16:00,78.3,67.3,29.91,WSW,238,4.0,6.0,69,0.00,,,0.00,Wunderground v.1.15,2013-08-09 19:16:00,
2013-08-09 14:22:00,78.3,68.1,29.91,SW,236,5.0,5.0,71,0.00,,,0.00,Wunderground v.1.15,2013-08-09 19:22:00,
2013-08-09 14:27:00,78.5,68.3,29.91,WSW,240,5.0,5.0,71,0.00,,,0.00,Wunderground v.1.15,2013-08-09 19:27:00,
2013-08-09 14:33:00,78.9,67.9,29.91,WSW,240,3.0,4.0,69,0.00,,,0.00,Wunderground v.1.15,2013-08-09 19:33:00,
2013-08-09 14:39:00,79.1,66.8,29.91,WSW,241,2.0,4.0,66,0.00,,,0.00,Wunderground v.1.15,2013-08-09 19:39:00,
2013-08-09 14:45:00,79.3,67.8,29.91,WSW,241,2.0,3.0,68,0.00,,,0.00,Wunderground v.1.15,2013-08-09 19:45:00,
2013-08-09 14:50:00,79.6,66.8,29.91,WSW,241,1.0,1.0,65,0.00,,,0.00,Wunderground v.1.15,2013-08-09 19:50:00,
2013-08-09 14:56:00,80.0,68.1,29.91,WSW,241,2.0,5.0,67,0.00,,,0.00,Wunderground v.1.15,2013-08-09 19:56:00,
2013-08-09 15:02:00,79.9,68.0,29.91,WSW,254,3.0,3.0,67,0.00,,,0.00,Wunderground v.1.15,2013-08-09 20:02:00,
2013-08-09 15:07:00,79.9,66.6,29.91,WSW,253,2.0,4.0,64,0.00,,,0.00,Wunderground v.1.15,2013-08-09 20:07:00,
2013-08-09 15:13:00,79.6,67.2,29.91,WSW,253,3.0,3.0,66,0.00,,,0.00,Wunderground v.1.15,2013-08-09 20:13:00,
2013-08-09 15:18:00,79.1,68.1,29.91,WSW,248,4.0,6.0,69,0.00,,,0.00,Wunderground v.1.15,2013-08-09 20:18:00,
2013-08-09 15:24:00,78.7,67.7,29.91,WSW,248,3.0,4.0,69,0.00,,,0.00,Wunderground v.1.15,2013-08-09 20:24:00,
2013-08-09 15:30:00,78.5,67.9,29.91,WSW,248,2.0,3.0,70,0.00,,,0.00,Wunderground v.1.15,2013-08-09 20:30:00,
2013-08-09 15:35:00,78.4,67.4,29.91,WSW,248,3.0,4.0,69,0.00,,,0.00,Wunderground v.1.15,2013-08-09 20:35:00,
2013-08-09 15:41:00,78.4,68.6,29.91,WSW,248,3.0,5.0,72,0.00,,,0.00,Wunderground v.1.15,2013-08-09 20:41:00,
2013-08-09 15:47:00,78.3,68.5,29.91,SW,236,4.0,6.0,72,0.00,,,0.00,Wunderground v.1.15,2013-08-09 20:47:00,
2013-08-09 15:53:00,78.1,69.1,29.91,SW,234,5.0,5.0,74,0.00,,,0.00,Wunderground v.1.15,2013-08-09 20:53:00,
2013-08-09 15:59:00,77.9,68.9,29.91,SW,219,5.0,6.0,74,0.00,,,0.00,Wunderground v.1.15,2013-08-09 20:59:00,
2013-08-09 16:04:00,77.8,69.2,29.91,SW,226,6.0,7.0,75,0.00,,,0.00,Wunderground v.1.15,2013-08-09 21:04:00,
2013-08-09 16:10:00,77.6,67.9,29.91,SW,226,8.0,8.0,72,0.00,,,0.00,Wunderground v.1.15,2013-08-09 21:10:00,
2013-08-09 16:16:00,77.4,68.1,29.91,SW,227,8.0,10.0,73,0.00,,,0.00,Wunderground v.1.15,2013-08-09 21:16:00,
2013-08-09 16:21:00,77.3,68.8,29.91,SW,226,7.0,7.0,75,0.00,,,0.00,Wunderground v.1.15,2013-08-09 21:21:00,
2013-08-09 16:27:00,77.3,69.1,29.91,SW,222,5.0,7.0,76,0.00,,,0.00,Wunderground v.1.15,2013-08-09 21:27:00,
2013-08-09 16:33:00,77.5,68.9,29.91,SW,224,5.0,8.0,75,0.00,,,0.00,Wunderground v.1.15,2013-08-09 21:33:00,
2013-08-09 16:39:00,77.4,69.2,29.91,SW,223,6.0,8.0,76,0.00,,,0.00,Wunderground v.1.15,2013-08-09 21:39:00,
2013-08-09 16:45:00,77.4,69.2,29.90,SW,225,6.0,7.0,76,0.00,,,0.00,Wunderground v.1.15,2013-08-09 21:45:00,
2013-08-09 16:51:00,77.4,69.2,29.90,SW,225,5.0,7.0,76,0.00,,,0.00,Wunderground v.1.15,2013-08-09 21:51:00,
2013-08-09 16:57:00,77.4,69.2,29.90,SW,221,6.0,7.0,76,0.00,,,0.00,Wunderground v.1.15,2013-08-09 21:57:00,
2013-08-09 17:03:00,77.2,68.7,29.90,SW,221,6.0,9.0,75,0.00,,,0.00,Wunderground v.1.15,2013-08-09 22:03:00,
2013-08-09 17:09:00,77.0,68.1,29.90,SW,224,6.0,10.0,74,0.00,,,0.00,Wunderground v.1.15,2013-08-09 22:09:00,
2013-08-09 17:15:00,76.9,68.8,29.90,SW,223,6.0,7.0,76,0.00,,,0.00,Wunderground v.1.15,2013-08-09 22:15:00,
2013-08-09 17:21:00,76.7,68.9,29.90,SW,223,5.0,6.0,77,0.00,,,0.00,Wunderground v.1.15,2013-08-09 22:21:00,
2013-08-09 17:27:00,76.6,68.5,29.90,SW,223,5.0,6.0,76,0.00,,,0.00,Wunderground v.1.15,2013-08-09 22:27:00,
2013-08-09 17:32:00,76.6,68.8,29.90,SW,223,4.0,5.0,77,0.00,,,0.00,Wunderground v.1.15,2013-08-09 22:32:00,
2013-08-09 17:38:00,76.5,69.1,29.90,SW,223,5.0,6.0,78,0.00,,,0.00,Wunderground v.1.15,2013-08-09 22:38:00,
2013-08-09 17:44:00,76.4,69.0,29.90,SW,223,5.0,5.0,78,0.00,,,0.00,Wunderground v.1.15,2013-08-09 22:44:00,
2013-08-09 17:50:00,76.3,69.3,29.90,SW,223,4.0,5.0,79,0.00,,,0.00,Wunderground v.1.15,2013-08-09 22:50:00,
2013-08-09 17:56:00,76.1,69.1,29.89,SW,223,5.0,6.0,79,0.00,,,0.00,Wunderground v.1.15,2013-08-09 22:56:00,
2013-08-09 18:01:00,76.0,69.4,29.89,SW,223,4.0,5.0,80,0.00,,,0.00,Wunderground v.1.15,2013-08-09 23:01:00,
2013-08-09 18:07:00,75.9,69.3,29.89,SW,223,4.0,5.0,80,0.00,,,0.00,Wunderground v.1.15,2013-08-09 23:07:00,
2013-08-09 18:12:00,75.8,69.2,29.89,SW,223,4.0,5.0,80,0.00,,,0.00,Wunderground v.1.15,2013-08-09 23:12:00,
2013-08-09 18:18:00,75.6,69.4,29.88,SW,223,4.0,5.0,81,0.00,,,0.00,Wunderground v.1.15,2013-08-09 23:18:00,
2013-08-09 18:24:00,75.5,69.6,29.89,SW,223,3.0,4.0,82,0.00,,,0.00,Wunderground v.1.15,2013-08-09 23:24:00,
2013-08-09 18:30:00,75.4,69.5,29.89,SW,223,2.0,3.0,82,0.00,,,0.00,Wunderground v.1.15,2013-08-09 23:30:00,
2013-08-09 18:35:00,75.3,69.8,29.89,SW,223,2.0,3.0,83,0.00,,,0.00,Wunderground v.1.15,2013-08-09 23:35:00,
2013-08-09 18:41:00,75.2,69.7,29.89,SW,223,3.0,4.0,83,0.00,,,0.00,Wunderground v.1.15,2013-08-09 23:41:00,
2013-08-09 18:46:00,75.1,69.6,29.89,SW,223,4.0,5.0,83,0.00,,,0.00,Wunderground v.1.15,2013-08-09 23:46:00,
2013-08-09 18:52:00,75.0,69.8,29.90,SW,223,4.0,4.0,84,0.00,,,0.00,Wunderground v.1.15,2013-08-09 23:52:00,
2013-08-09 18:58:00,74.9,69.7,29.90,SW,223,3.0,4.0,84,0.00,,,0.00,Wunderground v.1.15,2013-08-09 23:58:00,
2013-08-09 19:04:00,74.8,69.6,29.90,SW,223,3.0,3.0,84,0.00,,,0.00,Wunderground v.1.15,2013-08-10 00:04:00,
2013-08-09 19:09:00,74.7,69.5,29.90,SW,223,3.0,4.0,84,0.00,,,0.00,Wunderground v.1.15,2013-08-10 00:09:00,
2013-08-09 19:15:00,74.5,69.3,29.90,SW,223,3.0,4.0,84,0.00,,,0.00,Wunderground v.1.15,2013-08-10 00:15:00,
2013-08-09 19:20:00,74.5,69.3,29.90,SW,223,3.0,3.0,84,0.00,,,0.00,Wunderground v.1.15,2013-08-10 00:20:00,
2013-08-09 19:25:00,74.4,68.9,29.90,SW,223,3.0,4.0,83,0.00,,,0.00,Wunderground v.1.15,2013-08-10 00:25:00,
2013-08-09 19:31:00,74.4,69.2,29.90,SW,223,2.0,3.0,84,0.00,,,0.00,Wunderground v.1.15,2013-08-10 00:31:00,
2013-08-09 19:37:00,74.3,69.1,29.90,SW,223,3.0,4.0,84,0.00,,,0.00,Wunderground v.1.15,2013-08-10 00:37:00,
2013-08-09 19:42:00,74.2,69.1,29.91,SW,223,3.0,3.0,84,0.00,,,0.00,Wunderground v.1.15,2013-08-10 00:42:00,
2013-08-09 19:48:00,74.0,68.9,29.91,SW,223,2.0,3.0,84,0.00,,,0.00,Wunderground v.1.15,2013-08-10 00:48:00,
2013-08-09 19:53:00,73.9,68.8,29.91,SW,223,1.0,3.0,84,0.00,,,0.00,Wunderground v.1.15,2013-08-10 00:53:00,
2013-08-09 19:59:00,73.9,68.8,29.91,SW,223,3.0,5.0,84,0.00,,,0.00,Wunderground v.1.15,2013-08-10 00:59:00,
2013-08-09 20:05:00,73.7,68.6,29.91,SW,223,4.0,4.0,84,0.00,,,0.00,Wunderground v.1.15,2013-08-10 01:05:00,
2013-08-09 20:11:00,73.7,68.9,29.91,SW,223,4.0,4.0,85,0.00,,,0.00,Wunderground v.1.15,2013-08-10 01:11:00,
2013-08-09 20:16:00,73.5,68.7,29.91,SW,223,5.0,5.0,85,0.00,,,0.00,Wunderground v.1.15,2013-08-10 01:16:00,
2013-08-09 20:22:00,73.4,69.0,29.90,SW,223,5.0,6.0,86,0.00,,,0.00,Wunderground v.1.15,2013-08-10 01:22:00,
2013-08-09 20:28:00,73.3,68.9,29.90,SW,223,5.0,6.0,86,0.00,,,0.00,Wunderground v.1.15,2013-08-10 01:28:00,
2013-08-09 20:33:00,73.1,68.7,29.91,SW,223,5.0,5.0,86,0.00,,,0.00,Wunderground v.1.15,2013-08-10 01:33:00,
2013-08-09 20:39:00,72.7,68.6,29.91,SW,223,5.0,5.0,87,0.00,,,0.00,Wunderground v.1.15,2013-08-10 01:39:00,
2013-08-09 20:44:00,72.2,68.4,29.91,SW,223,4.0,5.0,88,0.00,,,0.00,Wunderground v.1.15,2013-08-10 01:44:00,
2013-08-09 20:50:00,71.9,68.5,29.91,SW,223,3.0,4.0,89,0.00,,,0.00,Wunderground v.1.15,2013-08-10 01:50:00,
2013-08-09 20:56:00,71.6,68.2,29.91,SW,223,4.0,4.0,89,0.00,,,0.00,Wunderground v.1.15,2013-08-10 01:56:00,
2013-08-09 21:02:00,71.5,68.1,29.92,SW,223,4.0,4.0,89,0.00,,,0.00,Wunderground v.1.15,2013-08-10 02:02:00,
2013-08-09 21:07:00,71.4,68.0,29.92,SW,223,4.0,5.0,89,0.00,,,0.00,Wunderground v.1.15,2013-08-10 02:07:00,
2013-08-09 21:13:00,71.2,68.1,29.92,SW,224,4.0,5.0,90,0.00,,,0.00,Wunderground v.1.15,2013-08-10 02:13:00,
2013-08-09 21:19:00,71.2,68.1,29.92,SW,225,4.0,5.0,90,0.00,,,0.00,Wunderground v.1.15,2013-08-10 02:19:00,
2013-08-09 21:24:00,71.2,68.1,29.92,SW,225,3.0,5.0,90,0.00,,,0.00,Wunderground v.1.15,2013-08-10 02:24:00,
2013-08-09 21:30:00,71.3,68.2,29.92,SW,225,3.0,3.0,90,0.00,,,0.00,Wunderground v.1.15,2013-08-10 02:30:00,
2013-08-09 21:35:00,71.3,68.2,29.93,SW,225,2.0,4.0,90,0.00,,,0.00,Wunderground v.1.15,2013-08-10 02:35:00,
2013-08-09 21:40:00,71.3,68.2,29.92,SW,225,2.0,2.0,90,0.00,,,0.00,Wunderground v.1.15,2013-08-10 02:40:00,
2013-08-09 21:45:00,71.3,68.2,29.92,SW,225,2.0,4.0,90,0.00,,,0.00,Wunderground v.1.15,2013-08-10 02:45:00,
2013-08-09 21:51:00,71.3,68.5,29.92,SW,225,3.0,4.0,91,0.00,,,0.00,Wunderground v.1.15,2013-08-10 02:51:00,
2013-08-09 21:56:00,71.3,68.5,29.92,SW,225,2.0,4.0,91,0.00,,,0.00,Wunderground v.1.15,2013-08-10 02:56:00,
2013-08-09 22:01:00,71.4,68.6,29.92,SW,225,2.0,3.0,91,0.00,,,0.00,Wunderground v.1.15,2013-08-10 03:01:00,
2013-08-09 22:06:00,71.3,68.5,29.92,SW,225,1.0,3.0,91,0.00,,,0.00,Wunderground v.1.15,2013-08-10 03:06:00,
2013-08-09 22:12:00,71.3,68.5,29.93,SW,225,0.0,0.0,91,0.00,,,0.00,Wunderground v.1.15,2013-08-10 03:12:00,
2013-08-09 22:18:00,71.1,68.3,29.93,SW,225,0.0,0.0,91,0.00,,,0.00,Wunderground v.1.15,2013-08-10 03:18:00,
2013-08-09 22:24:00,71.0,68.2,29.93,SW,225,0.0,2.0,91,0.00,,,0.00,Wunderground v.1.15,2013-08-10 03:24:00,
2013-08-09 22:30:00,70.9,68.5,29.93,SW,225,1.0,1.0,92,0.00,,,0.00,Wunderground v.1.15,2013-08-10 03:30:00,
2013-08-09 22:36:00,70.8,68.4,29.93,SW,225,0.0,1.0,92,0.00,,,0.00,Wunderground v.1.15,2013-08-10 03:36:00,
2013-08-09 22:42:00,70.8,68.7,29.93,SW,225,0.0,2.0,93,0.00,,,0.00,Wunderground v.1.15,2013-08-10 03:42:00,
2013-08-09 22:48:00,70.8,68.7,29.94,SW,225,1.0,3.0,93,0.00,,,0.00,Wunderground v.1.15,2013-08-10 03:48:00,
2013-08-09 22:53:00,70.8,68.7,29.94,SW,225,1.0,3.0,93,0.00,,,0.00,Wunderground v.1.15,2013-08-10 03:53:00,
2013-08-09 22:59:00,70.8,68.7,29.94,SW,225,2.0,3.0,93,0.00,,,0.00,Wunderground v.1.15,2013-08-10 03:59:00,
2013-08-09 23:01:00,70.7,68.6,29.94,SW,225,1.0,2.0,93,0.00,,,0.00,Wunderground v.1.15,2013-08-10 04:01:00,
2013-08-09 23:02:00,70.7,68.6,29.94,SW,225,1.0,2.0,93,0.00,,,0.00,Wunderground v.1.15,2013-08-10 04:02:00,
2013-08-09 23:04:00,70.7,68.6,29.94,SW,225,2.0,3.0,93,0.00,,,0.00,Wunderground v.1.15,2013-08-10 04:04:00,
2013-08-09 23:05:00,70.7,68.6,29.94,SW,225,2.0,3.0,93,0.00,,,0.00,Wunderground v.1.15,2013-08-10 04:05:00,
2013-08-09 23:11:00,70.6,68.5,29.94,SW,226,3.0,4.0,93,0.00,,,0.00,Wunderground v.1.15,2013-08-10 04:11:00,
2013-08-09 23:17:00,70.5,68.4,29.94,WSW,252,4.0,5.0,93,0.00,,,0.00,Wunderground v.1.15,2013-08-10 04:17:00,
2013-08-09 23:23:00,70.4,68.3,29.94,WNW,290,4.0,6.0,93,0.00,,,0.00,Wunderground v.1.15,2013-08-10 04:23:00,
2013-08-09 23:27:00,70.4,68.3,29.94,WNW,292,4.0,6.0,93,0.00,,,0.00,Wunderground v.1.15,2013-08-10 04:27:00,
2013-08-09 23:32:00,70.3,67.9,29.95,WNW,292,4.0,5.0,92,0.00,,,0.00,Wunderground v.1.15,2013-08-10 04:32:00,
2013-08-09 23:38:00,70.2,68.1,29.95,WNW,297,4.0,6.0,93,0.00,,,0.00,Wunderground v.1.15,2013-08-10 04:38:00,
2013-08-09 23:44:00,70.1,68.0,29.95,NW,308,5.0,7.0,93,0.00,,,0.00,Wunderground v.1.15,2013-08-10 04:44:00,
2013-08-09 23:50:00,70.0,67.9,29.95,NW,315,6.0,6.0,93,0.00,,,0.00,Wunderground v.1.15,2013-08-10 04:50:00,
2013-08-09 23:56:00,70.0,67.9,29.95,NW,318,6.0,7.0,93,0.00,,,0.00,Wunderground v.1.15,2013-08-10 04:56:00,